EW9192 Weather Reports


Display with metric or nautical units.
time (UTC)temp
F
wind
direction
speed
MPH
gust
MPH
rain 1hr
in
rain 24hr
in
rain mn
in
humidity
%
barometer
mb
20190325194638 35 306 0.0 3.0 0.00 0.00 0.00 38 1019.2
20190325193237 35 301 0.0 1.0 0.00 0.00 0.00 37 1019.3
20190325191703 34 304 0.0 4.0 0.00 0.00 0.00 35 1019.5
20190325190204 34 117 0.0 6.0 0.00 0.00 0.00 36 1019.6
20190325184720 34 311 0.0 2.0 0.00 0.00 0.00 38 1019.8
20190325183200 33 320 0.0 6.0 0.00 0.00 0.00 38 1020.1
20190325181622 34 308 0.0 2.0 0.00 0.00 0.00 38 1020.6
20190325180150 33 308 0.0 3.0 0.00 0.00 0.00 39 1020.7
20190325174558 33 304 0.0 2.0 0.00 0.00 0.00 38 1021.0
20190325173146 32 313 0.0 4.0 0.00 0.00 0.00 37 1021.2
20190325171626 33 306 0.0 1.0 0.00 0.00 0.00 38 1021.4
20190325170136 33 301 0.0 2.0 0.00 0.00 0.00 38 1021.4
20190325164653 32 304 0.0 3.0 0.00 0.00 0.00 38 1021.7
20190325163039 31 306 0.0 3.0 0.00 0.00 0.00 36 1021.9
20190325161544 31 350 0.0 1.0 0.00 0.00 0.00 37 1022.0
20190325160041 31 317 0.0 0.0 0.00 0.00 0.00 37 1022.1
20190325154553 31 314 0.0 1.0 0.00 0.00 0.00 39 1022.2
20190325153037 30 134 0.0 1.0 0.00 0.00 0.00 37 1022.3
20190325151534 30 303 0.0 1.0 0.00 0.00 0.00 38 1022.4
20190325150012 31 304 0.0 0.0 0.00 0.00 0.00 41 1022.5
20190325144506 30 303 0.0 0.0 0.00 0.00 0.00 43 1022.5
20190325143236 30 299 0.0 0.0 0.00 0.00 0.00 41 1022.5
20190325141740 29 309 0.0 1.0 0.00 0.00 0.00 42 1022.6
20190325140145 28 309 0.0 0.0 0.00 0.00 0.00 43 1022.8
20190325134633 27 309 0.0 0.0 0.00 0.00 0.00 43 1022.9
20190325133143 26 309 0.0 0.0 0.00 0.00 0.00 48 1022.9
20190325131620 24 309 0.0 0.0 0.00 0.00 0.00 54 1022.9
20190325130048 23 309 0.0 1.0 0.00 0.00 0.00 60 1022.9
20190325124547 22 325 0.0 0.0 0.00 0.00 0.00 69 1022.8
20190325123123 21 324 0.0 0.0 0.00 0.00 0.00 75 1022.6
20190325121605 18 324 0.0 0.0 0.00 0.00 0.00 79 1022.4
20190325120103 17 323 0.0 0.0 0.00 0.00 0.00 80 1022.3
20190325114529 16 323 0.0 1.0 0.00 0.00 0.00 81 1022.2
20190325113126 15 5 0.0 0.0 0.00 0.00 0.00 81 1021.9
20190325111539 15 5 0.0 0.0 0.00 0.00 0.00 82 1021.6
20190325110058 15 5 0.0 0.0 0.00 0.00 0.00 83 1021.5
20190325104612 15 5 0.0 0.0 0.00 0.00 0.00 84 1021.5
20190325103028 16 5 0.0 0.0 0.00 0.00 0.00 84 1021.2
20190325101526 16 5 0.0 0.0 0.00 0.00 0.00 85 1021.1
20190325100014 17 5 0.0 0.0 0.00 0.00 0.00 86 1021.0
20190325094510 17 5 0.0 0.0 0.00 0.00 0.00 87 1020.7
20190325093006 17 5 0.0 0.0 0.00 0.00 0.00 87 1020.5
20190325091657 17 5 0.0 0.0 0.00 0.00 0.00 87 1020.3
20190325090315 18 5 0.0 0.0 0.00 0.00 0.00 87 1020.2
20190325084636 18 5 0.0 0.0 0.00 0.00 0.00 87 1020.0
20190325083118 18 5 0.0 0.0 0.00 0.00 0.00 87 1019.8
20190325081710 18 5 0.0 0.0 0.00 0.00 0.00 86 1019.7
20190325080212 19 5 0.0 0.0 0.00 0.00 0.00 87 1019.5
20190325074619 20 5 0.0 0.0 0.00 0.00 0.00 86 1019.4
20190325073121 21 5 0.0 0.0 0.00 0.00 0.00 87 1019.4
20190325071606 21 5 0.0 0.0 0.00 0.00 0.00 87 1019.5
20190325070142 22 5 0.0 0.0 0.00 0.00 0.00 88 1019.4
20190325064601 22 5 0.0 0.0 0.00 0.00 0.00 88 1019.3
20190325063123 23 5 0.0 0.0 0.00 0.00 0.00 88 1019.2
20190325061556 23 14 0.0 1.0 0.00 0.00 0.00 89 1019.1
20190325060053 24 14 0.0 0.0 0.00 0.00 0.00 89 1019.0
20190325054602 24 14 0.0 1.0 0.00 0.00 0.00 89 1018.9
20190325053103 25 14 0.0 0.0 0.00 0.00 0.00 89 1018.7
20190325051648 26 14 0.0 1.0 0.00 0.00 0.00 89 1018.6
20190325050052 27 14 0.0 1.0 0.00 0.00 0.00 89 1018.5
20190325044530 28 14 0.0 0.0 0.00 0.00 0.00 89 1018.3
20190325043031 28 14 0.0 0.0 0.00 0.00 0.00 89 1018.2
20190325041517 28 14 0.0 0.0 0.00 0.00 0.00 89 1018.1
20190325040025 28 15 0.0 0.0 0.00 0.00 0.00 90 1017.8
20190325034526 28 15 0.0 0.0 0.00 0.00 0.00 91 1017.7
20190325033016 28 15 0.0 0.0 0.00 0.00 0.00 91 1017.5
20190325031519 28 16 0.0 1.0 0.00 0.00 0.00 91 1017.6
20190325030013 28 10 0.0 1.0 0.00 0.00 0.00 91 1017.4
20190325024519 29 360 0.0 1.0 0.00 0.00 0.00 91 1017.1
20190325023013 29 5 0.0 1.0 0.00 0.00 0.00 90 1016.9
20190325021510 29 314 0.0 1.0 0.00 0.00 0.00 90 1016.8
20190325020006 30 314 0.0 0.0 0.00 0.00 0.00 90 1016.8
20190325014513 30 314 0.0 1.0 0.00 0.00 0.00 89 1016.7
20190325013027 30 314 0.0 0.0 0.00 0.00 0.00 89 1016.7
20190325011512 30 314 0.0 0.0 0.00 0.00 0.00 88 1016.5
20190325010004 30 314 0.0 2.0 0.00 0.00 0.00 87 1016.3
20190325004506 31 232 0.0 1.0 0.00 0.00 0.00 87 1016.2
20190325003005 32 298 0.0 1.0 0.00 0.00 0.00 86 1016.0
20190325001503 32 320 0.0 4.0 0.00 0.00 0.00 83 1015.7
20190325000008 33 86 0.0 4.0 0.00 0.00 0.00 81 1015.4
20190324234502 33 324 0.0 1.0 0.00 0.00 0.00 80 1015.2
20190324233001 34 340 0.0 1.0 0.00 0.00 0.00 80 1014.9
20190324231710 34 318 0.0 0.0 0.00 0.00 0.00 79 1014.7
20190324230326 34 315 0.0 1.0 0.00 0.00 0.00 78 1014.5
20190324230003 34 315 0.0 1.0 0.00 0.00 0.00 78 1014.4
20190324224706 34 303 0.0 2.0 0.00 0.00 0.00 76 1014.2
20190324223319 35 305 0.0 4.0 0.00 0.00 0.00 75 1013.9
20190324221635 37 301 0.0 3.0 0.00 0.00 0.00 71 1013.9
20190324220200 38 324 0.0 1.0 0.00 0.00 0.00 67 1013.5
20190324214731 39 319 0.0 1.0 0.00 0.00 0.00 67 1013.3
20190324213153 40 302 0.0 1.0 0.00 0.00 0.00 65 1013.3
20190324211822 41 302 0.0 1.0 0.00 0.00 0.00 63 1013.3
20190324210220 42 303 0.0 0.0 0.00 0.00 0.00 63 1013.1
20190324204630 42 302 0.0 0.0 0.00 0.00 0.00 62 1013.1
20190324203226 42 302 0.0 0.0 0.00 0.00 0.00 63 1013.2
20190324201740 42 303 0.0 0.0 0.00 0.00 0.00 63 1013.3
20190324200120 44 304 0.0 2.0 0.00 0.00 0.00 62 1013.4